Date,TemperatureHighF,TemperatureAvgF,TemperatureLowF,DewpointHighF,DewpointAvgF,DewpointLowF,HumidityHigh,HumidityAvg,HumidityLow,PressureMaxIn,PressureMinIn,WindSpeedMaxMPH,WindSpeedAvgMPH,GustSpeedMaxMPH,PrecipitationSumIn
2013-1-1,47.7,34.7,21.9,24.8,19.7,14.7,85,57,29,30.29,30.14,0,0,0,0.00
2013-1-2,50.4,35.4,24.3,19.2,14.9,10.6,68,45,26,30.32,30.14,0,0,0,0.00
2013-1-3,33.1,29.8,26.2,29.7,21.9,10.6,93,74,48,30.42,30.22,0,0,0,0.00
2013-1-4,33.6,30.1,25.9,28.9,26.5,22.5,93,86,77,30.46,30.36,0,0,0,0.00
2013-1-5,34.3,25.9,19.8,28.2,22.7,17.2,92,88,76,30.55,30.41,0,0,0,0.00
2013-1-6,48.0,32.1,15.1,28.9,22.5,12.4,92,70,38,30.57,30.18,0,0,0,0.00
2013-1-7,57.6,43.2,33.6,31.8,27.9,23.2,73,56,35,30.19,29.81,0,0,0,0.00
2013-1-8,62.2,47.0,35.4,29.7,20.5,10.9,64,38,15,30.01,29.81,0,0,0,0.00
2013-1-9,62.2,47.1,35.1,28.2,20.0,14.5,47,35,23,30.26,30.01,0,0,0,0.00
2013-1-10,58.3,44.2,27.3,31.5,23.8,16.5,66,45,32,30.08,29.82,0,0,0,0.00
2013-1-11,52.3,45.0,32.4,28.6,19.7,9.1,55,37,26,29.85,29.74,0,0,0,0.00
2013-1-12,41.9,33.3,24.8,10.6,4.3,-0.4,42,29,19,30.13,29.84,0,0,0,0.00
2013-1-13,42.1,28.8,15.4,9.7,6.8,3.6,65,41,22,30.25,30.06,0,0,0,0.00
2013-1-14,43.2,30.8,19.0,19.0,6.6,-0.4,58,38,19,30.15,30.03,0,0,0,0.00
2013-1-15,38.1,28.7,20.7,9.7,2.9,-4.5,56,35,17,30.47,30.14,0,0,0,0.00
2013-1-16,49.6,32.8,20.5,11.3,4.2,-4.5,43,30,20,30.56,30.40,0,0,0,0.00
2013-1-17,57.0,40.8,25.2,23.5,15.6,7.0,51,37,23,30.58,30.38,0,0,0,0.00
2013-1-18,59.9,42.8,28.8,23.4,20.0,16.3,62,42,23,30.39,30.20,0,0,0,0.00
2013-1-19,65.7,45.6,31.5,22.8,17.5,11.3,55,35,16,30.35,30.19,0,0,0,0.00
2013-1-20,66.7,46.7,33.1,19.9,14.8,10.4,44,29,15,30.27,30.08,0,0,0,0.00
2013-1-21,67.3,48.5,35.8,18.0,13.2,9.0,33,25,14,30.23,30.07,0,0,0,0.00
2013-1-22,69.6,49.9,38.7,19.2,13.6,9.7,35,24,13,30.25,30.12,0,0,0,0.00
2013-1-23,71.1,51.3,35.4,22.3,15.7,9.0,37,25,15,30.34,30.17,0,0,0,0.00
2013-1-24,68.4,53.2,36.0,35.2,24.0,16.0,46,33,21,30.26,30.09,0,0,0,0.00
2013-1-25,65.7,54.3,44.1,41.9,37.0,30.7,63,53,39,30.17,30.01,0,0,0,0.00
2013-1-26,67.5,57.1,48.7,50.4,45.8,39.7,86,67,46,30.05,29.82,0,0,0,0.00
2013-1-27,64.4,55.4,46.9,47.3,43.1,37.6,88,65,42,29.93,29.83,0,0,0,0.00
2013-1-28,64.6,51.4,39.7,41.2,35.2,30.9,86,58,30,29.90,29.73,0,0,0,0.00
2013-1-29,45.5,39.8,34.3,32.7,20.7,12.2,73,48,28,30.06,29.75,0,0,0,0.00
2013-1-30,51.3,40.1,28.8,23.2,15.4,3.6,74,40,17,30.31,30.06,0,0,0,0.00
2013-1-31,59.2,42.8,28.0,22.5,17.3,12.4,53,37,22,30.34,30.18,0,0,0,0.00
2013-2-1,65.3,46.9,30.7,22.1,17.9,14.7,54,34,18,30.27,30.12,0,0,0,0.00
2013-2-2,67.6,48.5,33.1,23.0,17.1,13.5,50,31,14,30.32,30.20,0,0,0,0.00
2013-2-3,64.2,51.1,38.8,33.4,19.6,12.0,47,30,17,30.24,29.91,0,0,0,0.00
2013-2-4,65.7,53.8,44.1,33.4,29.9,25.0,55,41,29,29.99,29.85,0,0,0,0.00
2013-2-5,70.0,52.6,38.7,28.0,25.3,21.4,63,37,20,30.02,29.85,0,0,0,0.00
2013-2-6,67.3,52.8,35.8,33.8,28.7,23.9,65,41,25,29.93,29.78,0,0,0,0.00
2013-2-7,66.9,52.8,37.8,33.8,27.1,21.9,65,40,20,30.04,29.91,0,0,0,0.00
2013-2-8,69.8,57.2,49.8,29.5,23.5,10.2,41,28,15,30.01,29.70,0,0,0,0.00
2013-2-9,57.4,48.2,38.3,25.7,18.0,12.0,42,30,20,29.91,29.62,0,0,0,0.00
2013-2-10,55.2,41.7,30.0,19.8,15.5,10.8,59,37,18,30.01,29.90,0,0,0,0.00
2013-2-11,60.1,43.3,25.7,30.7,14.8,8.8,74,33,15,30.02,29.83,0,0,0,0.00
2013-2-12,51.6,41.3,32.7,31.3,18.6,5.0,79,46,17,30.16,29.95,0,0,0,0.00
2013-2-13,57.0,41.5,28.6,14.9,12.3,9.5,50,32,17,30.22,30.04,0,0,0,0.00
2013-2-14,62.4,45.4,27.7,20.1,14.5,7.9,48,30,17,30.17,29.98,0,0,0,0.00
2013-2-15,60.6,46.1,34.7,25.3,18.7,11.5,47,35,15,30.34,30.13,0,0,0,0.00
2013-2-16,63.9,46.1,28.9,20.7,14.4,10.4,57,31,13,30.43,30.13,0,0,0,0.00
2013-2-17,69.6,49.9,27.7,14.2,10.3,7.3,45,23,9,30.12,29.75,0,0,0,0.00
2013-2-18,65.1,53.5,39.7,14.9,10.4,6.4,30,18,11,29.99,29.81,0,0,0,0.00
2013-2-19,57.4,47.5,39.0,45.3,22.7,2.8,89,46,14,29.95,29.75,0,0,0,0.00
2013-2-20,59.5,46.5,34.2,41.7,30.2,18.0,94,61,21,29.75,29.49,0,0,0,0.00
2013-2-21,50.7,39.7,30.7,25.2,23.2,20.5,75,53,31,29.96,29.71,0,0,0,0.00
2013-2-22,54.3,42.8,28.6,26.4,21.8,17.8,75,46,25,30.06,29.92,0,0,0,0.00
2013-2-23,62.8,46.5,29.1,22.5,17.4,11.7,52,33,18,30.09,29.74,0,0,0,0.00
2013-2-24,56.7,41.9,31.1,25.5,19.2,7.2,57,41,20,29.93,29.57,0,0,0,0.00
2013-2-25,55.8,36.7,22.5,16.5,12.5,9.3,61,40,16,30.15,29.93,0,0,0,0.00
2013-2-26,73.6,60.4,45.9,23.0,8.9,0.9,20,13,8,30.02,29.76,0,0,0,0.19
2013-2-27,73.0,45.1,28.8,19.2,3.5,-8.9,28,19,10,30.21,30.01,0,0,0,0.00
2013-2-28,59.4,43.3,28.8,12.0,5.6,0.9,37,22,10,30.35,30.21,0,0,0,0.00
2013-3-1,67.6,49.6,29.3,19.0,10.9,1.2,35,22,15,30.36,30.20,0,0,0,0.00
2013-3-2,74.1,54.6,34.9,22.1,17.0,9.5,37,24,14,30.35,30.10,0,0,0,0.00
2013-3-3,79.0,59.5,35.8,19.9,14.6,1.9,44,21,6,30.12,29.79,0,0,0,0.00
2013-3-4,75.9,62.5,46.2,27.5,21.2,14.2,31,21,13,29.92,29.60,0,0,0,0.00
2013-3-5,65.7,54.6,41.0,27.7,24.0,18.0,47,31,22,30.16,29.93,0,0,0,0.00
2013-3-6,77.2,62.2,49.5,29.8,26.8,23.4,38,27,17,30.09,29.81,0,0,0,0.00
2013-3-7,78.1,62.7,43.9,30.6,24.8,14.2,49,26,10,29.91,29.74,0,0,0,0.00
2013-3-8,66.6,60.4,51.8,44.6,32.8,23.0,54,36,23,29.82,29.64,0,0,0,0.00
2013-3-9,72.1,53.3,40.6,36.0,28.9,13.8,64,42,22,29.90,29.70,0,0,0,0.00
2013-3-10,57.9,45.5,30.9,30.0,24.6,20.1,78,48,27,30.15,29.90,0,0,0,0.00
2013-3-11,68.0,50.6,31.6,25.5,20.6,17.1,61,34,15,30.19,29.96,0,0,0,0.00
2013-3-12,74.5,57.1,36.9,24.8,19.4,13.6,43,25,12,30.12,29.99,0,0,0,0.00
2013-3-13,77.4,60.5,45.0,28.0,21.8,15.8,39,25,10,30.21,30.03,0,0,0,0.00
2013-3-14,82.8,63.0,43.7,21.9,16.9,11.8,33,19,8,30.18,29.99,0,0,0,0.00
2013-3-15,88.0,65.8,43.0,20.3,16.9,11.7,36,18,7,30.02,29.76,0,0,0,0.00
2013-3-16,82.9,67.1,50.4,25.3,17.3,10.6,24,15,8,29.77,29.55,0,0,0,0.00
2013-3-17,77.2,63.7,46.8,28.4,20.1,12.7,34,20,10,29.73,29.57,0,0,0,0.00
2013-3-18,76.3,63.8,47.8,23.7,15.8,8.8,30,16,8,29.87,29.73,0,0,0,0.00
2013-3-19,76.5,62.8,48.6,26.2,19.7,11.7,27,19,14,29.94,29.76,0,0,0,0.00
2013-3-20,72.1,60.1,45.0,33.4,27.3,22.3,42,29,21,30.08,29.75,0,0,0,0.00
2013-3-21,76.3,64.2,51.1,31.6,28.4,25.3,43,27,17,29.76,29.50,0,0,0,0.00
2013-3-22,76.5,66.0,52.7,33.3,26.3,19.4,33,23,14,29.64,29.45,0,0,0,0.00
2013-3-23,70.5,61.3,51.3,31.1,15.9,-10.7,38,20,6,29.85,29.60,0,0,0,0.00
2013-3-24,64.2,49.9,33.3,10.0,-1.9,-11.6,18,12,8,30.04,29.78,0,0,0,0.00
2013-3-25,63.3,50.9,36.1,13.6,7.4,1.0,27,17,12,30.11,29.89,0,0,0,0.00
2013-3-26,70.3,56.6,39.6,21.2,16.7,10.9,33,21,14,30.14,29.89,0,0,0,0.00
2013-3-27,78.1,61.6,44.8,27.7,22.0,17.6,39,23,13,29.98,29.82,0,0,0,0.00
2013-3-28,82.2,67.2,50.9,29.5,25.1,18.1,32,21,14,29.97,29.80,0,0,0,0.00
2013-3-29,83.7,69.4,55.9,26.4,22.0,15.3,30,18,10,29.95,29.79,0,0,0,0.00
2013-3-30,81.3,68.2,49.6,27.3,20.8,16.5,32,17,10,29.94,29.75,0,0,0,0.00
2013-3-31,81.9,69.1,53.4,33.1,27.6,20.8,38,22,13,29.87,29.72,0,0,0,0.00
2013-4-1,83.5,67.9,49.8,29.8,23.2,15.3,37,20,8,29.86,29.65,0,0,0,0.00
2013-4-2,79.2,66.0,52.3,29.7,20.2,9.9,33,18,9,29.75,29.58,0,0,0,0.00
2013-4-3,74.8,60.8,43.9,34.5,28.1,10.6,57,31,12,29.93,29.73,0,0,0,0.00
2013-4-4,81.0,64.8,46.8,35.1,24.9,16.9,46,25,10,30.05,29.87,0,0,0,0.00
2013-4-5,85.5,70.0,53.2,29.3,22.9,9.1,38,19,6,29.91,29.64,0,0,0,0.00
2013-4-6,81.3,68.0,53.4,33.3,25.8,18.9,36,22,10,29.80,29.64,0,0,0,0.00
2013-4-7,82.2,69.4,54.3,32.4,26.3,21.7,29,20,13,29.75,29.54,0,0,0,0.00
2013-4-8,82.9,69.9,55.8,34.7,28.4,22.5,35,22,12,29.58,29.26,0,0,0,0.00
2013-4-9,66.9,57.5,50.2,36.7,29.2,20.1,59,35,20,29.75,29.29,0,0,0,0.00
2013-4-10,64.0,53.9,41.2,31.8,26.0,20.1,61,36,19,29.87,29.74,0,0,0,0.00
2013-4-11,75.4,58.9,37.6,27.1,20.3,13.3,55,25,11,29.88,29.64,0,0,0,0.00
2013-4-12,80.1,65.6,49.6,29.1,22.8,15.8,31,20,13,29.74,29.57,0,0,0,0.00
2013-4-13,81.7,70.0,56.1,31.3,24.4,18.9,30,19,10,29.68,29.48,0,0,0,0.00
2013-4-14,79.9,68.7,55.8,30.9,26.1,21.9,31,21,13,29.62,29.46,0,0,0,0.00
2013-4-15,83.3,70.1,55.9,34.3,27.4,21.4,40,22,12,29.65,29.51,0,0,0,0.00
2013-4-16,85.8,70.3,51.3,31.1,22.3,13.6,38,18,7,29.69,29.51,0,0,0,0.00
2013-4-17,77.7,65.6,48.9,29.3,23.1,16.5,40,20,12,29.78,29.44,0,0,0,0.00
2013-4-18,67.8,54.6,41.4,24.4,16.7,3.6,46,25,10,30.08,29.77,0,0,0,0.00
2013-4-19,68.7,53.9,35.1,9.1,2.9,-5.4,29,14,5,30.21,29.94,0,0,0,0.00
2013-4-20,79.9,61.3,37.2,21.4,12.7,1.4,51,18,6,29.94,29.68,0,0,0,0.00
2013-4-21,84.6,68.3,48.7,25.0,16.2,7.9,28,14,8,29.96,29.74,0,0,0,0.00
2013-4-22,87.3,71.3,50.0,24.4,16.9,12.2,25,14,7,29.85,29.58,0,0,0,0.00
2013-4-23,84.6,71.3,54.7,27.5,19.8,13.3,28,15,8,29.77,29.54,0,0,0,0.00
2013-4-24,76.5,62.5,46.8,31.6,28.3,23.5,47,29,16,29.97,29.77,0,0,0,0.00
2013-4-25,85.8,71.0,61.0,41.5,31.0,12.7,38,25,8,29.92,29.65,0,0,0,0.00
2013-4-26,84.7,68.4,49.6,30.2,22.4,11.7,44,20,8,29.96,29.78,0,0,0,0.00
2013-4-27,85.5,68.8,52.3,31.3,23.0,15.4,36,19,8,29.99,29.78,0,0,0,0.00
2013-4-28,89.4,71.5,53.8,38.5,26.0,19.2,36,20,9,29.84,29.62,0,0,0,0.00
2013-4-29,91.9,73.3,50.9,34.3,23.1,4.6,49,19,4,29.70,29.49,0,0,0,0.00
2013-4-30,91.9,75.4,54.3,30.9,20.5,12.9,32,14,6,29.61,29.48,0,0,0,0.00
2013-5-1,88.0,74.1,58.5,31.6,20.5,10.2,30,15,7,29.76,29.55,0,0,0,0.00
2013-5-2,69.4,59.1,49.1,32.4,26.1,16.7,47,29,15,30.26,29.76,0,0,0,0.00
2013-5-3,69.1,55.0,41.2,25.3,19.9,14.9,46,27,13,30.33,29.91,0,0,0,0.00
2013-5-4,84.4,65.1,43.0,28.8,22.3,15.6,55,22,12,29.91,29.68,0,0,0,0.00
2013-5-5,83.5,74.0,64.2,34.2,26.0,18.0,20,17,14,29.84,29.65,0,0,0,0.00
2013-5-6,80.4,70.9,62.1,42.3,34.2,24.8,44,27,17,29.80,29.67,0,0,0,0.00
2013-5-7,80.8,69.2,55.9,37.0,31.4,25.5,40,26,14,29.86,29.67,0,0,0,0.00
2013-5-8,80.1,68.4,57.6,34.3,28.1,22.1,37,23,12,29.85,29.71,0,0,0,0.00
2013-5-9,80.4,68.3,53.8,34.3,28.6,22.6,37,24,14,29.85,29.71,0,0,0,0.00
2013-5-10,77.4,65.1,54.5,47.5,39.7,29.5,73,42,23,30.01,29.75,0,0,0,0.21
2013-5-11,76.5,63.6,47.8,47.1,41.0,33.6,82,49,22,30.14,30.01,0,0,0,0.00
2013-5-12,81.7,69.0,54.3,41.9,37.3,32.0,59,34,18,30.12,29.91,0,0,0,0.00
2013-5-13,84.4,71.9,57.0,40.5,30.0,12.6,45,24,8,30.05,29.86,0,0,0,0.00
2013-5-14,84.6,72.3,54.9,45.3,38.2,28.6,57,31,17,29.94,29.69,0,0,0,0.00
2013-5-15,93.6,75.6,57.0,43.7,37.0,29.8,55,29,13,29.81,29.59,0,0,0,0.00
2013-5-16,91.0,77.2,57.9,39.6,32.3,23.7,45,22,9,29.75,29.56,0,0,0,0.00
2013-5-17,93.6,77.8,59.0,36.0,30.1,18.5,36,19,9,29.72,29.57,0,0,0,0.00
2013-5-18,88.7,76.6,60.3,34.9,25.3,12.0,33,16,7,29.73,29.56,0,0,0,0.00
2013-5-19,86.0,74.0,55.8,34.3,27.1,21.4,33,19,10,29.73,29.54,0,0,0,0.00
2013-5-20,87.3,76.4,58.6,36.5,28.6,21.0,34,19,9,29.71,29.50,0,0,0,0.00
2013-5-21,88.0,74.5,57.9,35.6,26.7,14.4,33,18,7,29.78,29.59,0,0,0,0.00
2013-5-22,92.3,76.0,54.3,34.0,26.5,18.3,40,18,7,29.71,29.53,0,0,0,0.00
2013-5-23,98.1,82.2,63.1,50.4,31.3,23.2,43,18,9,29.68,29.49,0,0,0,0.00
2013-5-24,95.7,79.9,60.1,53.6,43.8,31.8,69,32,13,29.76,29.59,0,0,0,0.00
2013-5-25,96.1,83.9,72.7,57.6,41.2,23.0,54,27,8,29.74,29.56,0,0,0,0.00
2013-5-26,94.5,80.8,63.5,34.5,23.9,12.7,22,13,6,29.77,29.59,0,0,0,0.00
2013-5-27,92.8,77.8,57.7,30.4,21.2,5.2,32,14,4,29.71,29.52,0,0,0,0.00
2013-5-28,92.1,78.3,59.4,30.4,20.6,9.5,29,13,5,29.57,29.36,0,0,0,0.00
2013-5-29,87.1,77.0,64.2,37.0,29.5,15.8,27,18,10,29.54,29.39,0,0,0,0.00
2013-5-30,90.5,78.5,62.2,43.0,37.0,31.3,36,23,16,29.66,29.49,0,0,0,0.00
2013-5-31,95.7,82.5,64.2,42.3,37.5,32.9,39,21,12,29.69,29.49,0,0,0,0.00
2013-6-1,98.4,85.0,67.8,42.3,30.2,18.9,28,15,7,29.67,29.55,0,0,0,0.00
2013-6-2,97.3,83.4,74.1,57.2,50.6,39.9,46,33,21,29.70,29.44,0,0,0,0.00
2013-6-3,97.9,82.3,68.5,55.4,44.3,20.8,62,33,7,29.69,29.51,0,0,0,0.00
2013-6-4,98.1,82.5,60.6,39.9,33.1,21.2,37,18,10,29.70,29.52,0,0,0,0.00
2013-6-5,97.0,83.5,64.8,43.5,31.9,16.5,41,18,6,29.66,29.49,0,0,0,0.00
2013-6-6,95.2,80.4,62.8,48.6,40.1,22.1,41,25,13,29.68,29.55,0,0,0,0.00
2013-6-7,92.5,79.8,69.8,59.2,51.3,38.5,59,39,17,29.69,29.51,0,0,0,0.00
2013-6-8,101.8,84.3,63.5,54.0,44.9,27.7,62,30,10,29.64,29.41,0,0,0,0.00
2013-6-9,101.5,88.1,73.2,55.0,46.5,28.9,42,25,13,29.61,29.47,0,0,0,0.00
2013-6-10,105.3,90.3,71.6,57.2,49.6,31.6,52,27,9,29.67,29.50,0,0,0,0.00
2013-6-11,104.9,90.7,72.7,55.2,44.0,33.1,41,22,9,29.66,29.47,0,0,0,0.00
2013-6-12,105.4,90.8,70.0,53.8,43.1,31.5,37,20,9,29.66,29.48,0,0,0,0.00
2013-6-13,102.2,88.9,77.2,59.5,52.6,42.1,50,31,15,29.64,29.48,0,0,0,0.00
2013-6-14,96.3,82.8,70.2,61.0,55.6,47.5,64,41,24,29.67,29.49,0,0,0,0.01
2013-6-15,101.5,86.0,68.2,60.1,52.5,40.5,68,35,14,29.72,29.55,0,0,0,0.07
2013-6-16,101.5,88.5,73.0,54.3,49.8,45.7,45,28,17,29.73,29.55,0,0,0,0.00
2013-6-17,100.6,86.5,71.8,59.5,53.8,47.5,54,34,17,29.68,29.51,0,0,0,0.00
2013-6-18,97.5,86.3,73.9,60.3,54.2,41.5,56,36,17,29.71,29.52,0,0,0,0.00
2013-6-19,102.2,88.9,72.0,61.7,48.6,26.8,66,31,8,29.61,29.42,0,0,0,0.00
2013-6-20,100.4,88.8,74.1,54.1,48.4,35.8,46,26,14,29.63,29.45,0,0,0,0.00
2013-6-21,100.6,86.5,68.4,57.6,49.4,25.3,62,31,12,29.69,29.50,0,0,0,0.00
2013-6-22,99.9,85.9,70.9,46.0,35.7,23.4,27,17,11,29.70,29.48,0,0,0,0.00
2013-6-23,99.3,85.6,70.2,52.7,37.7,27.0,41,20,11,29.66,29.47,0,0,0,0.00
2013-6-24,99.1,86.2,68.5,46.8,41.0,35.4,36,21,14,29.67,29.49,0,0,0,0.00
2013-6-25,97.9,86.1,70.3,45.3,34.6,19.6,33,18,8,29.72,29.58,0,0,0,0.00
2013-6-26,105.4,85.6,63.1,42.4,28.0,14.4,30,14,4,29.77,29.61,0,0,0,0.00
2013-6-27,107.6,87.5,64.9,49.5,31.6,21.0,31,15,6,29.76,29.59,0,0,0,0.00
2013-6-28,100.8,91.0,79.9,53.8,45.2,38.3,37,21,14,29.80,29.63,0,0,0,0.00
2013-6-29,103.8,89.9,74.1,52.2,46.6,37.2,43,24,11,29.76,29.56,0,0,0,0.00
2013-6-30,99.7,87.9,72.3,61.5,52.5,46.4,68,31,20,29.75,29.51,0,0,0,0.11
2013-7-1,87.1,75.9,66.6,62.4,59.0,55.0,82,58,36,29.92,29.74,0,0,0,0.08
2013-7-2,88.2,76.9,64.8,60.6,55.1,50.0,81,50,29,29.96,29.75,0,0,0,0.02
2013-7-3,94.5,78.6,65.8,59.7,55.8,49.3,76,49,24,29.90,29.60,0,0,0,0.09
2013-7-4,97.5,81.0,66.6,60.6,56.4,52.5,79,46,23,29.71,29.52,0,0,0,0.00
2013-7-5,100.6,86.1,68.4,59.2,54.1,44.8,64,37,16,29.65,29.46,0,0,0,0.00
2013-7-6,101.8,87.2,73.0,63.3,57.1,53.2,57,38,21,29.58,29.43,0,0,0,0.00
2013-7-7,103.6,89.0,77.4,62.1,56.7,50.2,54,35,22,29.62,29.48,0,0,0,0.00
2013-7-8,99.1,88.2,75.0,60.6,55.3,50.4,56,34,21,29.73,29.59,0,0,0,0.00
2013-7-9,99.9,88.9,74.8,61.3,57.5,49.6,56,36,23,29.79,29.58,0,0,0,0.00
2013-7-10,97.9,87.6,77.2,62.4,59.0,54.3,57,39,27,29.77,29.57,0,0,0,0.00
2013-7-11,98.2,86.0,75.6,64.4,58.8,52.9,62,41,24,29.72,29.58,0,0,0,0.00
2013-7-12,99.1,83.7,72.9,66.6,59.5,54.7,65,46,24,29.73,29.55,0,0,0,0.04
2013-7-13,100.0,86.8,70.5,62.4,57.5,48.7,68,40,20,29.75,29.56,0,0,0,0.00
2013-7-14,102.4,89.6,75.4,61.9,55.0,48.2,61,32,21,29.68,29.46,0,0,0,0.01
2013-7-15,85.3,76.4,70.3,63.0,59.1,50.7,71,56,44,29.84,29.56,0,0,0,0.01
2013-7-16,86.5,76.4,66.0,57.0,53.1,48.9,68,46,29,29.90,29.80,0,0,0,0.00
2013-7-17,85.5,75.5,66.4,59.0,55.7,51.4,69,51,32,29.96,29.86,0,0,0,0.00
2013-7-18,77.7,67.9,63.1,66.0,63.5,58.1,94,86,63,29.96,29.86,0,0,0,0.67
2013-7-19,84.7,75.0,66.4,66.2,64.0,60.6,94,71,45,29.93,29.71,0,0,0,0.00
2013-7-20,91.2,78.8,68.2,65.7,63.3,60.4,85,61,36,29.78,29.59,0,0,0,0.00
2013-7-21,95.0,80.6,67.3,65.3,62.0,54.9,87,57,28,29.73,29.57,0,0,0,0.00
2013-7-22,97.3,80.0,69.1,68.0,64.1,59.9,83,61,31,29.73,29.58,0,0,0,0.00
2013-7-23,97.7,78.6,69.1,68.2,63.7,58.1,85,64,28,29.75,29.55,0,0,0,0.07
2013-7-24,94.3,79.9,68.5,69.1,65.5,60.8,90,65,35,29.84,29.65,0,0,0,0.15
2013-7-25,89.2,77.0,66.7,66.7,65.1,62.2,92,69,46,29.89,29.78,0,0,0,0.09
2013-7-26,96.3,78.4,71.1,69.3,66.6,57.7,92,70,36,29.90,29.76,0,0,0,0.08
2013-7-27,87.1,75.6,65.8,68.7,64.4,62.1,94,71,46,29.93,29.74,0,0,0,0.20
2013-7-28,91.9,77.5,68.0,67.5,64.6,60.8,86,66,40,29.77,29.62,0,0,0,0.03
2013-7-29,100.0,84.0,70.2,67.1,61.0,53.4,81,50,23,29.78,29.68,0,0,0,0.00
2013-7-30,100.8,84.6,72.0,62.8,58.6,48.4,68,43,22,29.85,29.75,0,0,0,0.00
2013-7-31,99.0,85.4,71.1,66.9,59.6,53.2,83,45,22,29.88,29.70,0,0,0,0.18
2013-8-1,97.0,84.7,72.3,66.7,59.5,52.7,77,46,24,29.86,29.66,0,0,0,0.00
2013-8-2,99.0,85.2,70.9,64.2,60.3,56.7,73,45,26,29.75,29.60,0,0,0,0.01
2013-8-3,99.9,85.9,70.5,63.3,59.7,55.2,71,44,25,29.77,29.62,0,0,0,0.00
2013-8-4,101.5,87.4,72.7,62.6,57.5,48.2,64,39,17,29.77,29.58,0,0,0,0.00
2013-8-5,98.2,85.8,72.3,62.6,58.9,54.0,64,42,24,29.76,29.58,0,0,0,0.00
2013-8-6,95.4,82.7,71.6,62.8,58.4,52.3,67,46,26,29.75,29.63,0,0,0,0.00
2013-8-7,91.4,79.8,69.1,61.0,58.3,54.5,70,49,31,29.79,29.63,0,0,0,0.00
2013-8-8,96.6,82.0,66.4,61.5,54.3,43.7,78,44,21,29.78,29.61,0,0,0,0.00
2013-8-9,99.0,85.1,66.6,55.2,48.5,39.6,51,30,14,29.76,29.65,0,0,0,0.00
2013-8-10,88.3,81.5,75.0,63.3,57.1,52.9,60,44,33,29.88,29.75,0,0,0,0.03
2013-8-11,93.0,75.1,61.9,67.3,62.5,57.4,94,68,34,29.94,29.77,0,0,0,0.63
2013-8-12,96.6,83.2,70.2,65.7,62.6,58.8,79,52,31,29.85,29.68,0,0,0,0.00
2013-8-13,98.1,81.4,71.1,67.3,62.6,55.9,86,56,26,29.84,29.68,0,0,0,0.05
2013-8-14,96.8,81.8,69.4,65.1,60.9,53.1,82,52,24,29.86,29.67,0,0,0,0.06
2013-8-15,95.4,80.4,69.3,64.0,60.5,53.6,81,54,26,29.86,29.74,0,0,0,0.00
2013-8-16,100.2,84.2,67.6,62.8,58.1,48.0,74,44,18,29.85,29.71,0,0,0,0.00
2013-8-17,102.0,85.3,69.1,62.8,54.9,45.0,69,39,16,29.83,29.65,0,0,0,0.00
2013-8-18,101.5,87.7,74.8,59.2,53.6,48.6,49,33,19,29.78,29.63,0,0,0,0.00
2013-8-19,101.3,81.8,69.4,64.4,58.0,52.0,71,48,21,29.78,29.63,1,0,1,0.14
2013-8-20,93.7,81.4,70.5,64.6,59.4,52.3,73,50,27,29.78,29.67,0,0,0,0.00
2013-8-21,96.3,83.1,67.8,61.7,54.9,38.3,76,42,21,29.79,29.66,0,0,0,0.00
2013-8-22,94.6,84.1,68.7,57.6,48.4,39.4,50,30,18,29.82,29.65,0,0,0,0.00
2013-8-23,92.8,81.5,70.2,58.3,55.9,53.1,62,43,28,29.79,29.63,0,0,0,0.00
2013-8-24,90.5,81.1,73.2,66.4,58.4,54.3,57,47,32,29.81,29.68,0,0,0,0.04
2013-8-25,93.4,82.5,68.7,65.3,58.9,52.5,82,48,27,29.88,29.74,0,0,0,0.00
2013-8-26,94.5,84.7,76.6,59.0,55.6,49.6,49,38,24,29.87,29.71,0,0,0,0.00
2013-8-27,87.8,80.2,72.5,62.1,58.4,54.5,61,48,34,29.82,29.70,0,0,0,0.00
2013-8-28,83.5,73.6,68.7,67.1,63.7,60.6,92,72,47,29.91,29.74,0,0,0,0.06
2013-8-29,83.7,73.2,66.0,67.8,65.3,63.5,94,78,52,30.01,29.89,0,0,0,0.18
2013-8-30,92.5,79.0,64.2,67.8,64.8,61.9,93,65,39,29.94,29.73,0,0,0,0.00
2013-8-31,97.7,82.9,66.9,66.4,61.2,54.1,88,52,27,29.78,29.60,0,0,0,0.00
2013-9-1,99.9,84.9,67.3,64.2,55.8,44.4,78,42,16,29.71,29.58,0,0,0,0.00
2013-9-2,97.2,83.7,70.7,60.8,55.6,50.0,55,39,24,29.77,29.62,0,0,0,0.00
2013-9-3,94.3,83.0,71.1,61.0,55.2,47.8,67,41,21,29.83,29.67,0,0,0,0.00
2013-9-4,93.2,83.3,69.3,56.8,51.2,46.0,55,34,21,29.87,29.73,0,0,0,0.00
2013-9-5,94.3,84.4,71.4,55.4,49.0,42.6,53,31,18,29.88,29.75,0,0,0,0.00
2013-9-6,94.6,81.5,68.7,63.1,54.7,45.5,68,41,25,29.87,29.69,0,0,0,0.05
2013-9-7,94.3,84.6,75.4,58.1,54.4,47.8,53,37,25,29.79,29.62,0,0,0,0.00
2013-9-8,93.0,84.6,73.6,58.1,53.9,49.6,53,36,25,29.71,29.52,0,0,0,0.00
2013-9-9,91.2,79.7,70.3,64.6,58.7,52.9,80,50,31,29.66,29.50,0,0,0,0.01
2013-9-10,75.9,69.3,66.0,67.1,65.0,62.8,94,87,68,29.83,29.65,0,0,0,0.63
2013-9-11,81.9,71.2,66.4,69.4,66.1,63.3,95,85,60,29.88,29.78,0,0,0,0.15
2013-9-12,74.3,69.4,66.6,66.7,64.4,60.3,96,84,63,29.85,29.78,0,0,0,0.58
2013-9-13,78.1,69.7,64.8,67.5,63.8,60.3,95,82,63,29.83,29.70,0,0,0,1.32
2013-9-14,84.4,74.1,64.9,65.3,60.6,56.3,94,66,41,29.78,29.65,0,0,0,0.05
2013-9-15,88.0,75.9,63.9,62.1,59.5,55.0,86,60,38,29.80,29.69,0,0,0,0.00
2013-9-16,86.0,76.4,66.7,62.8,60.4,56.1,80,59,41,29.86,29.74,0,0,0,0.00
2013-9-17,86.4,76.4,65.5,63.9,61.4,58.1,85,61,44,29.85,29.66,0,0,0,0.00
2013-9-18,88.0,77.8,69.4,64.2,61.5,59.7,74,58,40,29.75,29.57,0,0,0,0.00
2013-9-19,88.5,75.2,65.8,67.1,62.6,58.5,86,67,41,29.71,29.56,0,0,0,0.20
2013-9-20,84.0,74.4,63.9,65.3,60.8,55.0,91,65,40,29.82,29.69,0,0,0,0.00
2013-9-21,81.3,71.6,63.3,60.6,58.0,54.9,83,64,45,29.88,29.71,0,0,0,0.00
2013-9-22,86.2,72.7,58.3,58.1,55.5,53.6,87,57,33,29.73,29.48,0,0,0,0.00
2013-9-23,87.3,73.1,60.3,56.3,46.6,38.7,70,43,19,29.79,29.54,0,0,0,0.00
2013-9-24,88.5,71.5,57.7,49.3,43.1,38.1,61,39,19,29.93,29.76,0,0,0,0.00
2013-9-25,91.8,73.2,54.7,54.5,48.9,44.4,73,46,25,29.76,29.53,0,0,0,0.00
2013-9-26,89.4,75.9,60.4,54.5,48.4,40.8,71,41,21,29.65,29.51,0,0,0,0.00
2013-9-27,85.6,76.0,65.7,59.0,50.5,43.0,58,42,23,29.72,29.51,0,0,0,0.00
2013-9-28,80.6,66.5,53.2,43.3,31.2,17.4,47,30,11,30.02,29.72,0,0,0,0.00
2013-9-29,86.0,65.4,47.1,43.2,34.7,27.5,61,35,16,30.07,29.86,0,0,0,0.00
2013-9-30,89.2,69.8,49.8,46.0,38.9,28.6,74,37,13,29.88,29.69,0,0,0,0.00
2013-10-1,90.9,70.6,51.3,42.8,33.4,21.7,59,29,10,29.83,29.70,0,0,0,0.00
2013-10-2,87.6,70.2,52.2,41.7,37.3,30.0,58,32,18,29.84,29.68,0,0,0,0.00
2013-10-3,85.3,69.4,52.9,45.0,39.1,31.1,69,36,15,29.78,29.61,0,0,0,0.00
2013-10-4,82.8,70.5,56.8,48.2,42.0,27.1,64,37,22,29.79,29.65,0,0,0,0.00
2013-10-5,75.9,63.2,52.9,31.5,23.6,18.9,33,23,14,30.06,29.79,0,0,0,0.00
2013-10-6,77.7,60.8,45.3,34.3,28.0,22.8,46,30,16,30.16,30.03,0,0,0,0.00
2013-10-7,80.8,61.9,43.5,38.1,33.0,28.4,69,38,16,30.14,29.93,0,0,0,0.00
2013-10-8,85.8,65.6,45.1,43.7,37.6,32.2,72,39,17,29.93,29.69,0,0,0,0.00
2013-10-9,84.4,69.2,49.8,48.6,41.9,36.0,68,39,22,29.79,29.63,0,0,0,0.00
2013-10-10,81.3,68.7,55.6,50.0,41.3,34.7,67,39,22,29.75,29.58,0,0,0,0.00
2013-10-11,75.4,61.2,45.1,43.7,38.1,34.2,73,44,27,29.87,29.74,0,0,0,0.00
2013-10-12,80.8,64.8,49.6,42.8,37.2,29.8,65,38,22,29.98,29.82,0,0,0,0.00
2013-10-13,81.9,68.3,54.3,55.0,46.4,40.1,63,47,30,29.93,29.77,0,0,0,0.00
2013-10-14,76.8,70.1,63.1,52.7,50.0,47.8,62,49,38,29.86,29.73,0,0,0,0.00
2013-10-15,75.2,65.0,56.8,55.0,47.7,32.2,70,55,33,29.86,29.71,0,0,0,0.00
2013-10-16,74.8,62.9,51.4,51.3,37.4,18.1,79,46,14,29.94,29.80,0,0,0,0.00
2013-10-17,76.5,59.4,43.2,32.2,27.2,21.4,55,31,14,30.00,29.80,0,0,0,0.00
2013-10-18,78.3,58.7,39.6,34.9,27.0,21.9,62,33,13,29.96,29.81,0,0,0,0.00
2013-10-19,73.0,56.6,40.6,35.4,31.0,27.0,60,40,24,30.11,29.91,0,0,0,0.00
2013-10-20,77.4,60.9,39.6,35.4,22.2,14.5,73,28,10,29.95,29.75,0,0,0,0.00
2013-10-21,73.0,58.2,42.1,36.5,30.2,19.2,53,35,24,30.04,29.81,0,0,0,0.00
2013-10-22,75.0,57.8,41.7,41.9,35.6,31.5,72,47,22,30.15,29.99,0,0,0,0.00
2013-10-23,79.2,59.9,43.0,41.5,35.9,30.4,72,45,21,30.09,29.92,0,0,0,0.00
2013-10-24,80.2,64.8,46.6,44.8,39.6,33.8,69,42,27,30.03,29.86,0,0,0,0.00
2013-10-25,79.5,68.1,54.7,48.9,44.3,37.0,75,45,27,29.99,29.83,0,0,0,0.00
2013-10-26,78.8,62.9,49.3,47.3,41.7,35.1,81,50,23,30.06,29.92,0,0,0,0.00
2013-10-27,75.6,59.8,45.7,45.0,41.0,36.5,73,52,30,30.04,29.78,0,0,0,0.00
2013-10-28,79.0,63.5,45.1,45.1,36.0,27.1,83,43,16,29.86,29.74,0,0,0,0.00
2013-10-29,71.4,65.1,58.5,43.3,34.4,27.1,42,32,25,29.85,29.72,0,0,0,0.00
2013-10-30,72.0,62.8,50.5,47.3,40.8,29.8,67,45,35,29.83,29.65,0,0,0,0.00
2013-10-31,69.1,54.4,37.0,31.5,24.8,17.2,64,35,17,30.03,29.83,0,0,0,0.00
2013-11-1,72.0,55.2,42.1,30.0,25.1,19.6,48,33,17,30.12,29.95,0,0,0,0.00
2013-11-2,71.4,54.8,37.9,31.8,26.3,21.9,61,37,16,30.22,29.96,0,0,0,0.00
2013-11-3,74.8,59.3,44.1,43.5,34.1,23.4,58,40,24,29.95,29.67,0,0,0,0.00
2013-11-4,72.1,60.9,48.0,51.8,46.4,41.9,86,60,42,29.80,29.64,0,0,0,0.00
2013-11-5,68.2,59.6,47.5,45.5,38.0,29.8,69,46,28,30.03,29.68,0,0,0,0.00
2013-11-6,66.6,50.6,38.3,32.2,20.6,10.2,59,34,14,30.31,30.03,0,0,0,0.00
2013-11-7,69.1,53.5,36.7,29.5,18.2,11.5,42,26,16,30.40,30.17,0,0,0,0.00
2013-11-8,73.6,56.1,41.2,42.3,31.6,19.8,64,40,28,30.17,29.91,0,0,0,0.00
2013-11-9,77.2,56.5,39.0,44.8,35.8,30.6,80,50,21,30.10,29.97,0,0,0,0.00
2013-11-10,78.4,57.3,38.5,36.0,31.8,28.2,74,42,17,30.18,30.03,0,0,0,0.00
2013-11-11,80.4,60.2,44.6,42.3,34.6,27.7,59,40,24,30.14,29.98,0,0,0,0.00
2013-11-12,67.3,54.2,45.7,41.2,35.1,26.8,72,49,38,30.43,30.11,0,0,0,0.00
2013-11-13,62.2,52.3,45.7,42.4,39.6,36.5,74,62,47,30.42,30.07,0,0,0,0.00
2013-11-14,71.4,57.4,43.7,45.0,41.0,37.4,80,57,32,30.07,29.81,0,0,0,0.00
2013-11-15,72.3,56.7,42.1,48.7,43.5,37.0,87,63,39,29.87,29.63,0,0,0,0.00
2013-11-16,74.3,62.8,52.9,50.0,43.5,35.8,83,53,26,29.73,29.56,0,0,0,0.03
2013-11-17,69.1,59.1,48.6,44.1,39.7,35.4,73,50,30,29.99,29.73,0,0,0,0.00
2013-11-18,73.8,58.4,48.6,41.7,37.6,35.4,63,48,29,30.08,29.94,0,0,0,0.00
2013-11-19,73.4,58.6,46.2,44.1,38.8,35.2,69,49,30,29.97,29.75,0,0,0,0.00
2013-11-20,72.3,57.7,43.5,41.0,38.7,36.1,77,51,31,29.84,29.70,0,0,0,0.00
2013-11-21,72.1,60.9,45.0,44.1,39.4,33.4,66,46,35,29.92,29.79,0,0,0,0.00
2013-11-22,65.1,49.4,39.6,39.9,34.4,27.0,68,57,36,30.23,29.83,0,0,0,0.00
2013-11-23,43.9,39.7,33.1,33.3,30.0,27.3,90,69,57,30.39,30.22,0,0,0,0.02
2013-11-24,35.1,33.0,29.7,30.4,29.3,27.1,92,86,78,30.36,30.25,0,0,0,0.23
2013-11-25,47.1,36.7,32.2,34.9,30.3,27.7,84,78,60,30.35,30.21,0,0,0,0.05
2013-11-26,55.0,40.8,28.9,32.2,29.1,25.5,89,66,37,30.49,30.34,0,0,0,0.00
2013-11-27,48.6,38.5,29.1,30.7,27.6,23.5,87,67,38,30.43,30.23,0,0,0,0.00
2013-11-28,60.1,42.5,27.9,32.2,28.0,23.4,84,60,30,30.32,30.18,0,0,0,0.00
2013-11-29,65.8,48.3,35.6,36.9,32.7,28.2,76,57,34,30.33,30.16,0,0,0,0.00
2013-11-30,64.8,50.1,37.0,39.6,36.7,31.8,83,62,37,30.25,30.10,0,0,0,0.00
2013-12-1,64.2,53.1,46.2,40.6,39.3,35.8,72,60,40,30.17,30.05,0,0,0,0.00
2013-12-2,67.3,51.1,36.0,36.0,28.3,19.2,77,46,22,30.07,29.81,0,0,0,0.00
2013-12-3,71.2,58.3,43.9,35.2,22.9,18.3,51,27,14,29.82,29.61,0,0,0,0.00
2013-12-4,70.2,58.1,46.2,44.8,37.3,29.7,75,48,26,29.74,29.56,0,0,0,0.00
2013-12-5,58.3,49.7,40.5,42.8,35.4,30.4,74,58,45,29.92,29.68,0,0,0,0.00
2013-12-6,52.3,41.3,32.5,30.7,22.0,12.2,74,50,20,30.13,29.91,0,0,0,0.00
2013-12-7,43.7,37.0,30.9,33.1,30.1,19.9,87,76,58,30.12,29.96,0,0,0,0.00
2013-12-8,53.4,41.4,28.4,28.4,25.6,21.4,88,56,35,30.09,29.96,0,0,0,0.00
2013-12-9,54.7,40.9,29.1,31.5,21.0,4.3,80,49,22,30.39,29.99,0,0,0,0.00
2013-12-10,50.7,34.3,21.4,7.2,3.9,1.2,44,29,15,30.47,30.26,0,0,0,0.00
2013-12-11,58.3,41.4,27.7,20.3,12.9,4.6,42,32,20,30.46,30.31,0,0,0,0.00
2013-12-12,44.2,39.2,34.9,38.3,29.9,15.8,88,71,36,30.45,30.17,0,0,0,0.09
2013-12-13,57.6,44.6,32.7,41.0,35.6,30.7,94,73,45,30.18,29.97,0,0,0,0.01
2013-12-14,57.0,43.1,34.0,33.1,28.0,23.9,86,58,30,30.38,30.05,0,0,0,0.00
2013-12-15,57.6,42.3,29.8,26.2,23.4,21.0,76,50,26,30.41,30.26,0,0,0,0.00
2013-12-16,65.3,46.0,33.8,28.8,25.2,21.9,62,46,24,30.37,30.21,0,0,0,0.00
2013-12-17,68.2,49.2,37.6,28.8,26.0,23.9,59,43,22,30.35,30.19,0,0,0,0.00
2013-12-18,63.3,48.5,32.9,28.9,25.7,22.6,67,43,26,30.21,29.90,0,0,0,0.00
2013-12-19,70.3,51.2,34.3,29.1,21.8,12.2,68,37,11,29.90,29.65,0,0,0,0.00
2013-12-20,59.4,48.2,40.6,44.8,32.7,19.9,86,57,35,29.71,29.50,0,0,0,0.14
2013-12-21,46.6,41.1,35.1,35.8,32.1,28.0,89,71,53,29.92,29.60,0,0,0,0.02
2013-12-22,53.8,43.1,33.1,30.9,25.7,18.3,75,53,25,30.28,29.92,0,0,0,0.00
2013-12-23,57.4,40.2,28.9,25.5,22.9,20.7,76,53,25,30.49,30.28,0,0,0,0.00
2013-12-24,59.2,41.4,28.2,27.9,23.6,18.9,71,51,29,30.43,30.17,0,0,0,0.00
2013-12-25,55.9,42.8,31.3,28.0,25.2,22.1,70,51,32,30.41,30.22,0,0,0,0.00
2013-12-26,54.7,40.5,28.4,26.6,24.1,21.0,75,54,31,30.41,30.22,0,0,0,0.00
2013-12-27,57.6,40.6,28.6,23.9,21.2,18.0,72,48,26,30.41,30.26,0,0,0,0.00
2013-12-28,58.8,41.4,25.3,28.9,22.9,15.8,68,50,31,30.27,29.96,0,0,0,0.00
2013-12-29,52.0,42.7,33.1,26.1,24.2,21.6,64,49,35,30.22,29.95,0,0,0,0.00
2013-12-30,57.9,39.5,26.1,26.1,20.9,18.1,72,50,23,30.38,30.22,0,0,0,0.00
2013-12-31,59.4,41.3,27.7,23.5,20.2,16.5,67,45,23,30.39,30.17,0,0,0,0.00
2014-1-1,64.2,43.5,26.6,25.0,21.7,16.9,70,45,22,30.24,30.06,0,0,0,0.00
2014-1-2,57.6,42.9,29.7,27.7,22.1,16.7,61,44,29,30.40,30.22,0,0,0,0.00